Weather History for Volk, WI

Change the Weather History Date:

Sunday, September 25, 2011

  Actual Average Record
Temperature  
Mean Temperature 46 °F -  
Max Temperature 60 °F 63 °F 77 °F (1997)
Min Temperature 33 °F 46 °F 32 °F (2001)
Degree Days  
Heating Degree Days 18    
Moisture  
Dew Point 43 °F    
Average Humidity 100    
Maximum Humidity 100    
Minimum Humidity 88    
Precipitation  
Precipitation 0.01 in - - ()
Sea Level Pressure  
Sea Level Pressure 29.98 in    
Wind  
Wind Speed 3 mph (NW)    
Max Wind Speed 12 mph    
Max Gust Speed 18 mph    
Visibility 4 miles    
Events Fog , Rain    
Averages and records for this station are not official NWS values.
T = Trace of Precipitation, MM = Missing Value Source: NWS Daily Summary

Daily Weather History Graph

Daily Weather History Graph

Search for Another Location

Airport:

Trip Planner

Search our weather history database for the weather conditions in past years. The results will help you decide how hot, cold, wet, or windy it might be!

Date:

Astronomy

Sep. 25, 2011 Rise Set
Actual Time 6:51 AM CDT 6:53 PM CDT
Civil Twilight 6:22 AM CDT 7:22 PM CDT
Nautical Twilight 5:48 AM CDT 7:55 PM CDT
Astronomical Twilight 5:14 AM CDT 8:29 PM CDT
Moon 4:35 AM CDT (9/25) 5:35 PM CDT (9/25)
Length of Visible Light 12h 59m
Length of Day
12h 01m
Waning Crescent, 5% of the Moon is Illuminated
Sep 25
Waning Crescent
Sep 27
New
Oct 3
First Quarter
Oct 11
Full
Oct 19
Last Quarter

Hourly Weather History & Observations

Time (CDT) Temp. Windchill Dew Point Humidity Pressure Visibility Wind Dir Wind Speed Gust Speed Precip Events Conditions
12:21 AM 41.0 °F - 41.0 °F 100% 30.05 in 0.8 mi Calm Calm - N/A   Clear
12:31 AM 41.0 °F - 41.0 °F 100% 30.05 in 0.5 mi Calm Calm - N/A Fog Fog
12:55 AM 39.9 °F - 39.9 °F 100% 30.04 in 0.5 mi Calm Calm - 0.01 in Fog Fog
1:40 AM 37.4 °F - 37.4 °F 100% 30.04 in 0.8 mi Calm Calm - N/A   Clear
1:42 AM 37.4 °F - 37.4 °F 100% 30.03 in 1.0 mi Calm Calm - N/A   Clear
1:50 AM 35.6 °F - 35.6 °F 100% 30.04 in 0.8 mi Calm Calm - N/A   Clear
1:55 AM 35.8 °F - 35.8 °F 100% 30.04 in 0.8 mi Calm Calm - N/A   Clear
2:02 AM 35.6 °F - 35.6 °F 100% 30.03 in 0.5 mi Calm Calm - N/A Fog Fog
2:16 AM 37.4 °F - 37.4 °F 100% 30.03 in 0.8 mi Calm Calm - N/A   Clear
2:18 AM 37.4 °F - 37.4 °F 100% 30.03 in 0.5 mi Calm Calm - N/A Fog Fog
2:22 AM 37.4 °F - 37.4 °F 100% 30.03 in 0.8 mi Calm Calm - N/A   Clear
2:28 AM 37.4 °F - 37.4 °F 100% 30.03 in 1.0 mi Calm Calm - N/A   Clear
2:31 AM 35.6 °F 30.7 °F 35.6 °F 100% 30.04 in 0.8 mi WNW 5.8 mph - N/A   Clear
2:35 AM 35.6 °F 29.9 °F 35.6 °F 100% 30.04 in 0.5 mi WNW 6.9 mph - N/A Fog Fog
2:45 AM 33.8 °F 29.6 °F 33.8 °F 100% 30.04 in 0.8 mi West 4.6 mph - N/A   Clear
2:50 AM 35.6 °F 29.9 °F 35.6 °F 100% 30.03 in 1.0 mi West 6.9 mph - N/A   Clear
2:52 AM 35.6 °F 29.9 °F 35.6 °F 100% 30.03 in 1.2 mi West 6.9 mph - N/A   Clear
2:53 AM 35.6 °F 29.9 °F 35.6 °F 100% 30.03 in 1.5 mi West 6.9 mph - N/A   Clear
2:54 AM 35.6 °F 30.7 °F 35.6 °F 100% 30.03 in 2.0 mi West 5.8 mph - N/A   Clear
2:55 AM 36.1 °F 31.4 °F 36.1 °F 100% 30.03 in 3.0 mi West 5.8 mph - N/A   Clear
3:21 AM 37.4 °F - 37.4 °F 100% 30.02 in 2.5 mi Calm Calm - N/A   Clear
3:22 AM 37.4 °F 34.9 °F 37.4 °F 100% 30.02 in 2.0 mi WNW 3.5 mph - N/A   Clear
3:23 AM 37.4 °F 34.9 °F 37.4 °F 100% 30.02 in 1.5 mi WNW 3.5 mph - N/A   Clear
3:25 AM 37.4 °F 34.9 °F 37.4 °F 100% 30.02 in 1.2 mi WNW 3.5 mph - N/A   Clear
3:26 AM 37.4 °F 34.9 °F 37.4 °F 100% 30.02 in 1.0 mi WNW 3.5 mph - N/A   Clear
3:32 AM 35.6 °F 32.8 °F 35.6 °F 100% 30.02 in 0.8 mi West 3.5 mph - N/A   Clear
3:53 AM 35.6 °F - 35.6 °F 100% 30.01 in 1.0 mi Calm Calm - N/A   Clear
3:55 AM 36.0 °F - 36.0 °F 100% 30.01 in 1.0 mi Calm Calm - N/A   Clear
3:56 AM 35.6 °F - 35.6 °F 100% 30.01 in 1.2 mi Calm Calm - N/A   Clear
4:01 AM 35.6 °F - 35.6 °F 100% 30.01 in 1.0 mi Calm Calm - N/A   Clear
4:03 AM 35.6 °F - 35.6 °F 100% 30.01 in 0.8 mi Calm Calm - N/A   Clear
4:05 AM 35.6 °F - 35.6 °F 100% 30.01 in 0.5 mi Calm Calm - N/A Fog Fog
4:26 AM 35.6 °F 32.8 °F 35.6 °F 100% 30.01 in 0.8 mi WNW 3.5 mph - N/A   Clear
4:32 AM 33.8 °F 28.6 °F 33.8 °F 100% 30.01 in 0.5 mi WNW 5.8 mph - N/A Fog Fog
4:42 AM 33.8 °F 29.6 °F 33.8 °F 100% 30.02 in 0.8 mi WSW 4.6 mph - N/A   Clear
4:45 AM 33.8 °F 28.6 °F 33.8 °F 100% 30.02 in 1.0 mi West 5.8 mph - N/A   Clear
4:47 AM 33.8 °F 27.7 °F 33.8 °F 100% 30.02 in 1.2 mi West 6.9 mph - N/A   Clear
4:48 AM 33.8 °F 27.7 °F 33.8 °F 100% 30.02 in 1.8 mi West 6.9 mph - N/A   Clear
4:49 AM 33.8 °F 27.7 °F 33.8 °F 100% 30.02 in 2.5 mi West 6.9 mph - N/A   Clear
4:50 AM 33.8 °F 27.7 °F 33.8 °F 100% 30.02 in 3.0 mi West 6.9 mph - N/A   Clear
4:53 AM 33.8 °F 27.7 °F 33.8 °F 100% 30.02 in 2.5 mi West 6.9 mph - N/A   Clear
4:54 AM 33.8 °F 27.7 °F 33.8 °F 100% 30.03 in 2.0 mi West 6.9 mph - N/A   Partly Cloudy
4:55 AM 34.7 °F 28.8 °F 34.7 °F 100% 30.02 in 2.0 mi West 6.9 mph - N/A   Partly Cloudy
4:57 AM 35.6 °F 29.9 °F 35.6 °F 100% 30.02 in 1.8 mi West 6.9 mph - N/A   Partly Cloudy
4:59 AM 33.8 °F 27.7 °F 33.8 °F 100% 30.02 in 1.5 mi West 6.9 mph - N/A   Partly Cloudy
5:04 AM 33.8 °F 27.7 °F 33.8 °F 100% 30.02 in 1.2 mi West 6.9 mph - N/A   Scattered Clouds
5:07 AM 35.6 °F 29.9 °F 35.6 °F 100% 30.02 in 1.0 mi West 6.9 mph - N/A   Scattered Clouds
5:11 AM 35.6 °F 31.7 °F 35.6 °F 100% 30.03 in 0.8 mi West 4.6 mph - N/A   Partly Cloudy
5:25 AM 35.6 °F 29.9 °F 35.6 °F 100% 30.03 in 0.5 mi WNW 6.9 mph - N/A Fog Fog
5:32 AM 35.6 °F 29.9 °F 35.6 °F 100% 30.03 in 0.8 mi West 6.9 mph - N/A   Scattered Clouds
5:41 AM 35.6 °F 30.7 °F 35.6 °F 100% 30.04 in 1.0 mi West 5.8 mph - N/A   Mostly Cloudy
5:47 AM 37.4 °F 32.8 °F 37.4 °F 100% 30.04 in 1.2 mi West 5.8 mph - N/A   Overcast
5:49 AM 37.4 °F 32.8 °F 37.4 °F 100% 30.04 in 1.5 mi West 5.8 mph - N/A   Overcast
5:51 AM 37.4 °F 32.1 °F 37.4 °F 100% 30.04 in 1.8 mi West 6.9 mph - N/A   Mostly Cloudy
5:52 AM 37.4 °F 32.1 °F 37.4 °F 100% 30.04 in 2.0 mi West 6.9 mph - N/A   Overcast
5:55 AM 37.6 °F 32.3 °F 37.6 °F 100% 30.03 in 2.5 mi West 6.9 mph - N/A   Overcast
5:57 AM 37.4 °F 32.8 °F 37.4 °F 100% 30.04 in 3.0 mi West 5.8 mph - N/A   Overcast
5:58 AM 37.4 °F 32.8 °F 37.4 °F 100% 30.03 in 3.0 mi West 5.8 mph - N/A   Overcast
6:07 AM 39.2 °F 35.0 °F 39.2 °F 100% 30.04 in 9.0 mi West 5.8 mph - N/A   Overcast
6:09 AM 39.2 °F 35.0 °F 39.2 °F 100% 30.04 in 10.0 mi West 5.8 mph - N/A   Overcast
6:53 AM 42.8 °F 40.1 °F 42.8 °F 100% 30.04 in 10.0 mi NW 4.6 mph - N/A   Overcast
6:55 AM 43.2 °F 40.5 °F 43.2 °F 100% 30.04 in 10.0 mi NW 4.6 mph - N/A   Overcast
7:54 AM 44.6 °F 42.2 °F 44.6 °F 100% 30.05 in 10.0 mi North 4.6 mph - N/A   Overcast
7:55 AM 45.5 °F 42.5 °F 45.5 °F 100% 30.04 in 10.0 mi North 5.8 mph - N/A   Overcast
8:11 AM 46.4 °F 45.2 °F 46.4 °F 100% 30.05 in 10.0 mi North 3.5 mph - N/A   Overcast
8:16 AM 46.4 °F 43.5 °F 46.4 °F 100% 30.04 in 10.0 mi North 5.8 mph - N/A   Overcast
8:22 AM 46.4 °F 43.5 °F 46.4 °F 100% 30.04 in 10.0 mi North 5.8 mph - N/A   Overcast
8:24 AM 46.4 °F 43.5 °F 46.4 °F 100% 30.04 in 10.0 mi North 5.8 mph - N/A   Overcast
8:41 AM 46.4 °F 43.5 °F 46.4 °F 100% 30.04 in 10.0 mi North 5.8 mph - N/A   Overcast
8:55 AM 47.7 °F - 47.7 °F 100% 30.04 in 10.0 mi North 6.9 mph - N/A   Overcast
9:55 AM 50.0 °F - 50.0 °F 100% 30.03 in 7.0 mi Variable 6.9 mph - N/A   Overcast
10:39 AM 50.0 °F - 50.0 °F 100% 30.00 in 7.0 mi NE 5.8 mph - N/A Rain Light Rain
10:55 AM 50.0 °F - 50.0 °F 100% 30.01 in 7.0 mi NNE 4.6 mph - N/A Rain Light Rain
10:59 AM 50.0 °F - 50.0 °F 100% 30.00 in 7.0 mi Calm Calm - N/A   Overcast
11:09 AM 50.0 °F - 50.0 °F 100% 29.99 in 7.0 mi North 5.8 mph - N/A Rain Light Rain
11:38 AM 51.8 °F - 51.8 °F 100% 29.98 in 7.0 mi Variable 4.6 mph - N/A   Overcast
11:55 AM 53.6 °F - 53.6 °F 100% 29.99 in 10.0 mi NNE 4.6 mph - N/A   Overcast
12:13 PM 53.6 °F - 53.6 °F 100% 29.97 in 10.0 mi NNE 5.8 mph - N/A   Overcast
12:27 PM 53.6 °F - 53.6 °F 100% 29.97 in 10.0 mi NNE 3.5 mph - N/A Rain Light Rain
12:53 PM 53.6 °F - 53.6 °F 100% 29.96 in 10.0 mi Calm Calm - N/A   Mostly Cloudy
12:55 PM 53.6 °F - 53.6 °F 100% 29.97 in 10.0 mi NE 5.8 mph - N/A   Mostly Cloudy
1:06 PM 55.4 °F - 55.4 °F 100% 29.94 in 10.0 mi NNE 4.6 mph - N/A   Mostly Cloudy
1:55 PM 59.0 °F - 59.0 °F 100% 29.93 in 10.0 mi ENE 5.8 mph - N/A   Overcast
2:55 PM 59.0 °F - 57.2 °F 94% 29.92 in 10.0 mi NE 5.8 mph - N/A   Overcast
3:55 PM 60.8 °F - 57.2 °F 88% 29.88 in 10.0 mi NNE 11.5 mph 18.4 mph N/A   Mostly Cloudy
4:46 PM 59.0 °F - 59.0 °F 100% 29.89 in 10.0 mi NNE 8.1 mph - N/A Rain Light Rain
4:55 PM 57.2 °F - 57.2 °F 100% 29.88 in 10.0 mi NE 5.8 mph - N/A Rain Light Rain
5:14 PM 57.2 °F - 57.2 °F 100% 29.87 in 10.0 mi ENE 8.1 mph - N/A   Overcast
5:55 PM 55.4 °F - 55.4 °F 100% 29.89 in 10.0 mi Variable 4.6 mph - N/A   Overcast
6:15 PM 55.4 °F - 55.4 °F 100% 29.89 in 10.0 mi Calm Calm - N/A   Mostly Cloudy
6:19 PM 55.4 °F - 55.4 °F 100% 29.89 in 10.0 mi Calm Calm - N/A   Scattered Clouds
6:55 PM 53.1 °F - 53.1 °F 100% 29.88 in 10.0 mi Calm Calm - N/A   Clear
7:55 PM 49.8 °F - 49.8 °F 100% 29.89 in 10.0 mi Calm Calm - N/A   Partly Cloudy
8:19 PM 46.4 °F - 46.4 °F 100% 29.89 in 2.5 mi Calm Calm - N/A   Clear
8:20 PM 46.4 °F - 46.4 °F 100% 29.89 in 2.0 mi Calm Calm - N/A   Clear
8:21 PM 46.4 °F - 46.4 °F 100% 29.89 in 1.8 mi Calm Calm - N/A   Clear
8:22 PM 46.4 °F - 46.4 °F 100% 29.89 in 1.5 mi Calm Calm - N/A   Clear
8:24 PM 46.4 °F - 46.4 °F 100% 29.90 in 1.2 mi Calm Calm - N/A   Partly Cloudy
8:26 PM 46.4 °F - 46.4 °F 100% 29.90 in 1.0 mi Calm Calm - N/A   Partly Cloudy
8:32 PM 46.4 °F - 46.4 °F 100% 29.90 in 0.8 mi Calm Calm - N/A   Mostly Cloudy
8:42 PM 46.4 °F - 46.4 °F 100% 29.90 in 1.0 mi Calm Calm - N/A   Mostly Cloudy
8:45 PM 46.4 °F - 46.4 °F 100% 29.90 in 1.2 mi Calm Calm - N/A   Mostly Cloudy
8:47 PM 46.4 °F - 46.4 °F 100% 29.90 in 1.5 mi Calm Calm - N/A   Mostly Cloudy
8:50 PM 46.4 °F - 46.4 °F 100% 29.90 in 1.8 mi Calm Calm - N/A   Mostly Cloudy
8:52 PM 46.4 °F 45.2 °F 46.4 °F 100% 29.90 in 1.5 mi NNW 3.5 mph - N/A   Mostly Cloudy
8:55 PM 45.7 °F 44.4 °F 45.7 °F 100% 29.90 in 1.2 mi NNW 3.5 mph - N/A   Mostly Cloudy
8:57 PM 46.4 °F 45.2 °F 46.4 °F 100% 29.90 in 1.0 mi NNW 3.5 mph - N/A   Mostly Cloudy
8:59 PM 44.6 °F 43.1 °F 44.6 °F 100% 29.90 in 0.8 mi NNW 3.5 mph - N/A   Scattered Clouds
9:11 PM 44.6 °F - 44.6 °F 100% 29.90 in 1.0 mi Calm Calm - N/A   Mostly Cloudy
9:12 PM 44.6 °F 43.1 °F 44.6 °F 100% 29.90 in 1.0 mi WSW 3.5 mph - N/A   Mostly Cloudy
9:14 PM 44.6 °F 43.1 °F 44.6 °F 100% 29.90 in 1.2 mi WSW 3.5 mph - N/A   Mostly Cloudy
9:15 PM 44.6 °F 43.1 °F 44.6 °F 100% 29.90 in 1.5 mi WSW 3.5 mph - N/A   Mostly Cloudy
9:16 PM 44.6 °F - 44.6 °F 100% 29.90 in 2.0 mi Calm Calm - N/A   Mostly Cloudy
9:17 PM 46.4 °F - 46.4 °F 100% 29.90 in 2.5 mi Calm Calm - N/A   Mostly Cloudy
9:18 PM 46.4 °F 45.2 °F 46.4 °F 100% 29.90 in 3.0 mi WSW 3.5 mph - N/A   Mostly Cloudy
9:30 PM 48.2 °F - 48.2 °F 100% 29.89 in 10.0 mi WNW 3.5 mph - N/A   Overcast
9:31 PM 48.2 °F - 48.2 °F 100% 29.89 in 10.0 mi WNW 3.5 mph - N/A   Overcast
9:44 PM 48.2 °F - 48.2 °F 100% 29.89 in 10.0 mi West 3.5 mph - N/A   Mostly Cloudy
9:55 PM 49.8 °F - 49.8 °F 100% 29.89 in 10.0 mi West 3.5 mph - N/A   Mostly Cloudy
10:05 PM 50.0 °F - 50.0 °F 100% 29.89 in 10.0 mi Calm Calm - N/A   Overcast
10:15 PM 50.0 °F - 50.0 °F 100% 29.89 in 10.0 mi Calm Calm - N/A   Overcast
10:35 PM 50.0 °F - 50.0 °F 100% 29.90 in 10.0 mi Calm Calm - N/A   Overcast
10:45 PM 50.0 °F - 50.0 °F 100% 29.90 in 10.0 mi Calm Calm - N/A   Overcast
10:55 PM 50.7 °F - 50.7 °F 100% 29.90 in 10.0 mi Calm Calm - N/A   Overcast
10:57 PM 50.0 °F - 50.0 °F 100% 29.90 in 10.0 mi Calm Calm - N/A   Overcast
11:07 PM 50.0 °F - 50.0 °F 100% 29.89 in 10.0 mi Calm Calm - N/A   Overcast
11:55 PM 51.1 °F - 51.1 °F 100% 29.88 in 9.0 mi Calm Calm - N/A   Overcast